Wind_Speed
28 29 29 28 27 26 26 26 25 27 29 27 25 24 23 22 22 22 21 18 18 18 16 17 19 19 21 23 22 18 17 19 17 15 15 14 13 14 14 14 16 16
29 29 30 29 28 26 27 28 26 27 29 26 23 23 22 21 22 22 20 18 18 18 17 18 19 18 20 24 25 19 15 16 16 14 14 13 12 12 12 13 14 15
31 31 31 31 29 27 28 28 26 26 27 25 22 21 20 21 21 20 20 19 18 17 18 18 19 20 20 23 25 21 15 14 15 14 13 12 11 11 12 12 12 13
33 31 31 31 29 27 27 27 26 26 25 24 23 21 19 20 21 21 20 20 18 18 18 18 20 22 21 23 22 18 15 13 12 13 12 10 11 12 11 11 11 11
34 32 31 31 29 28 28 27 26 26 25 24 23 22 22 22 23 21 20 20 19 18 19 19 21 22 21 21 20 16 15 13 12 13 12 10 11 11 11 11 10 10
34 33 33 32 31 30 28 27 27 26 26 25 24 24 24 23 23 22 20 21 20 19 19 20 22 22 20 19 18 17 16 14 14 14 13 11 11 11 10 10 10 10
34 35 34 33 32 30 29 28 27 27 26 26 25 25 24 22 23 22 21 22 20 19 19 19 21 22 20 18 17 16 15 14 13 13 13 12 11 11 10 10 10 10
34 35 36 34 31 31 31 30 28 28 26 26 26 25 23 23 23 22 21 22 21 20 19 19 20 20 20 18 16 15 14 13 13 12 12 12 11 11 11 10 10 11
33 35 36 34 32 33 35 32 29 28 27 26 27 25 23 24 23 22 21 21 21 21 20 20 19 19 19 18 16 15 14 13 12 12 12 12 11 11 11 11 11 11
33 35 36 36 35 35 36 34 30 28 28 28 26 24 23 23 22 22 23 22 21 21 21 20 20 19 18 18 16 15 14 13 13 13 13 12 12 12 12 12 12 12
34 35 36 37 36 35 36 35 32 30 29 29 27 24 24 23 22 22 23 22 22 22 21 21 20 19 18 17 16 15 14 13 13 13 13 12 12 12 12 12 12 12
35 36 36 37 37 36 37 36 34 33 31 28 27 25 23 23 23 22 22 23 22 22 22 21 20 19 18 17 16 15 14 14 13 13 13 12 12 12 12 12 12 12
38 38 36 38 39 38 38 37 35 32 29 27 27 26 23 23 23 22 23 23 23 23 23 21 20 19 18 17 16 16 15 15 14 14 13 13 13 13 12 13 13 12
40 40 36 37 39 39 38 37 33 30 28 27 26 25 24 24 23 22 23 23 23 24 23 21 20 19 18 18 17 16 16 16 16 15 14 13 13 13 13 13 13 13
39 37 34 36 38 40 39 36 32 29 28 27 26 25 24 23 23 23 23 22 23 24 22 20 20 19 18 19 18 17 17 16 16 16 15 15 14 14 14 14 14 13
36 34 35 37 40 41 39 36 32 29 27 27 26 24 23 23 23 22 22 23 23 22 21 20 20 19 20 22 20 19 18 17 16 16 15 15 15 15 14 14 14 13
33 33 37 40 41 40 38 35 33 29 27 27 26 24 24 23 23 22 22 23 22 22 22 23 21 21 23 24 23 21 19 17 17 16 16 15 16 16 15 15 14 13
31 34 38 39 39 39 37 34 32 29 28 28 27 25 24 23 24 23 22 22 21 22 24 25 24 24 25 24 23 22 20 18 16 16 16 16 16 16 15 15 14 13
35 39 39 36 37 38 37 34 33 30 28 28 27 26 24 23 24 23 22 22 21 22 24 25 25 26 26 24 22 22 22 19 15 16 16 15 16 15 15 15 14 14
40 42 39 35 36 38 37 35 33 30 28 28 27 25 23 23 24 24 24 25 24 22 23 25 27 28 27 25 23 23 24 19 14 15 15 14 15 15 14 15 15 14
38 38 37 35 36 37 36 34 31 28 28 28 26 24 22 22 23 25 28 30 29 26 23 23 26 28 26 25 24 24 24 20 14 14 15 13 14 15 14 14 14 14
36 34 35 35 35 37 36 32 29 28 28 27 25 23 22 21 22 26 32 34 33 29 24 21 24 27 26 26 25 24 25 20 14 14 15 13 14 15 14 14 14 14
36 34 35 34 32 33 33 30 28 28 27 25 24 24 24 24 23 24 29 32 32 30 24 19 22 26 26 27 26 26 26 21 15 14 15 14 14 15 14 14 14 14
35 33 33 31 28 29 30 28 27 26 25 25 25 24 24 24 23 22 24 27 31 32 28 23 24 27 28 28 28 28 27 22 16 16 16 15 15 15 14 14 14 16
34 31 30 27 26 28 28 27 26 26 25 24 23 24 24 23 22 23 23 25 30 34 32 28 28 29 29 29 29 29 29 22 17 17 17 16 16 16 15 14 14 17
31 30 29 28 26 26 27 26 25 24 24 24 23 23 22 21 23 23 21 23 29 33 32 29 28 30 31 30 30 31 31 24 18 18 18 17 17 16 15 15 14 16
Wind_Direction
194 192 193 193 195 196 193 192 193 194 196 196 194 195 196 198 200 201 200 197 195 193 191 195 205 212 213 215 217 217 217 219 222 224 223 222 224 227 232 231 229 230
196 191 190 193 195 198 198 195 192 194 198 197 195 195 196 198 200 201 198 194 194 193 190 195 203 205 207 213 217 214 213 216 218 218 217 218 218 218 223 227 224 224
197 192 190 193 195 197 200 195 191 196 199 198 197 196 194 195 199 198 194 191 191 191 191 195 202 206 208 214 217 213 209 211 212 216 219 216 215 215 216 220 221 221
197 192 189 193 195 197 197 191 189 196 198 197 196 194 191 194 198 194 191 192 190 189 192 196 202 208 210 212 216 214 210 208 210 217 218 213 213 215 213 214 216 218
197 192 188 192 195 195 193 189 189 195 198 195 192 191 193 196 197 192 189 192 193 190 191 195 202 205 205 207 212 215 211 207 211 214 212 211 213 210 208 210 210 212
197 193 189 192 196 195 191 189 191 194 195 193 189 191 195 197 196 191 188 190 194 193 191 193 200 202 200 197 198 201 203 204 208 208 206 208 210 207 208 209 207 209
197 193 190 192 196 195 191 190 191 193 194 193 191 192 194 195 194 189 187 189 193 195 194 194 198 198 196 192 190 194 197 198 201 202 204 206 204 203 206 204 202 203
195 192 191 192 194 194 193 191 192 194 193 192 193 194 194 194 192 187 185 188 191 194 194 195 196 194 193 193 192 193 193 193 197 199 201 202 199 199 198 194 193 195
193 191 190 191 193 195 195 193 192 192 192 192 193 194 194 194 191 186 183 183 187 192 191 191 193 193 193 195 194 193 193 195 198 198 198 198 197 196 192 187 187 187
191 191 189 191 193 195 196 194 191 190 192 193 193 193 192 190 186 185 184 182 184 192 192 189 190 192 194 196 196 196 197 197 197 196 196 196 195 193 189 186 186 186
191 191 189 190 192 194 195 193 189 190 192 193 193 193 189 184 181 183 185 184 185 191 193 190 189 191 193 195 196 196 197 197 196 193 192 193 191 189 187 187 187 187
191 191 190 190 191 193 194 192 189 189 190 192 193 192 186 182 182 183 185 187 187 190 193 191 189 190 192 193 193 194 194 193 191 189 189 188 186 185 186 187 188 188
190 192 191 190 190 192 192 191 188 187 188 192 193 188 184 184 184 184 186 189 189 192 194 190 187 188 189 190 190 190 190 188 186 184 183 183 183 184 185 186 188 188
192 193 191 188 189 191 192 190 186 185 187 191 190 185 185 187 185 183 187 189 191 194 193 187 184 186 188 188 189 188 186 185 184 181 180 179 180 181 183 185 186 188
192 192 189 186 187 190 192 191 186 183 185 190 189 184 184 187 185 184 186 187 189 190 186 183 183 186 187 187 186 185 184 184 183 181 179 178 177 180 183 186 186 187
189 188 187 185 186 188 191 191 187 182 183 188 189 184 181 183 183 183 185 186 186 184 181 182 183 186 194 194 189 184 182 182 182 180 180 179 177 181 184 186 187 186
185 184 185 185 185 187 188 189 188 183 181 186 187 182 179 181 181 182 184 186 185 182 184 189 189 193 204 204 198 191 184 180 180 179 180 181 180 181 184 184 184 182
181 180 183 184 184 185 186 187 187 183 179 183 185 179 175 178 181 182 182 185 185 184 190 195 196 202 210 208 201 197 187 179 180 179 179 181 182 183 183 181 180 179
182 182 182 182 183 184 184 185 186 183 180 182 183 177 173 177 181 180 181 184 185 186 192 197 200 208 212 205 199 198 191 182 181 181 180 182 182 182 182 180 178 178
182 184 183 181 182 182 181 182 186 185 182 180 179 174 171 176 180 181 185 189 188 187 192 197 202 210 211 202 198 198 193 187 182 181 181 181 181 181 181 181 180 180
179 182 183 181 179 178 178 180 183 185 183 178 175 174 174 178 183 186 193 197 196 193 192 194 203 210 207 199 198 197 192 188 182 180 181 179 180 182 182 182 183 184
179 180 180 179 176 176 177 178 180 186 185 177 173 178 183 186 188 192 198 201 199 196 192 192 203 208 203 198 199 196 190 188 184 181 180 179 180 183 184 185 187 186
182 179 176 174 172 174 177 176 179 185 185 177 175 179 186 190 188 188 195 198 197 195 190 188 199 203 199 198 198 193 188 187 186 182 180 180 181 183 184 186 188 187
180 176 173 170 170 173 173 171 174 180 180 177 177 180 187 191 185 179 186 192 195 197 194 192 198 200 198 198 198 192 187 186 185 182 180 180 180 181 184 186 189 190
176 173 170 167 170 174 171 169 172 177 178 177 178 182 186 185 179 178 185 191 195 199 199 198 200 199 197 198 197 192 188 186 186 183 179 179 179 178 183 186 188 193
172 169 167 165 170 173 170 169 170 172 174 175 177 180 180 177 177 181 184 189 195 200 201 199 200 201 199 197 196 193 189 186 188 186 179 178 179 178 181 185 185 191
Height
762 765 768 772 774 777 780 783 786 789 791 793 795 797 800 802 804 806 809 810 812 815 817 819 820 822 824 826 828 829 830 830 832 833 834 835 836 837 838 840 841 841
760 762 765 769 772 775 777 780 783 786 789 790 792 795 797 800 802 804 806 808 810 813 816 817 819 820 822 824 826 827 829 830 831 831 832 833 834 835 836 838 839 840
758 759 762 766 769 771 774 777 780 783 786 788 790 792 795 797 800 802 804 805 808 811 813 815 817 818 820 822 823 825 827 829 829 829 830 831 832 833 834 835 837 838
754 756 758 763 766 769 772 775 777 780 783 785 787 790 792 795 798 800 801 803 806 809 811 813 815 816 818 820 821 823 825 827 827 827 828 830 830 831 832 833 835 836
751 753 756 760 764 766 769 771 774 777 780 782 785 787 790 793 795 796 798 800 803 806 809 811 812 814 816 818 820 822 823 824 825 826 827 829 829 830 831 832 833 834
748 750 753 757 761 763 766 768 771 775 777 780 782 785 787 790 792 793 795 798 801 804 806 808 810 812 815 816 819 821 822 822 823 824 826 827 828 829 829 830 831 832
744 746 750 754 758 760 762 765 769 772 774 777 779 782 785 787 789 791 793 795 799 801 804 806 807 810 813 815 817 818 820 821 822 823 824 825 826 827 827 828 829 831
740 743 747 751 754 757 760 762 766 769 772 774 777 779 782 784 786 788 791 793 796 799 801 803 805 808 810 812 814 816 817 818 819 820 822 822 823 824 825 827 828 829
737 740 744 747 750 754 756 759 762 766 769 771 774 777 780 782 783 786 788 790 794 797 799 801 803 806 808 809 812 813 814 815 817 818 819 820 821 822 823 825 826 827
733 737 740 743 746 750 752 756 759 762 765 768 771 774 777 779 781 783 785 788 791 795 797 798 801 803 805 807 809 811 812 813 814 815 816 817 819 820 821 823 824 825
730 733 735 738 742 746 749 752 755 758 762 765 768 772 774 776 778 780 783 785 788 792 795 796 798 800 802 805 807 808 810 811 812 813 814 815 817 818 820 821 822 824
725 728 730 734 738 743 746 749 751 754 758 762 765 768 771 773 775 777 780 783 786 789 792 794 796 798 800 803 805 806 808 809 810 811 812 814 815 816 818 819 821 822
720 723 726 730 734 739 743 746 748 751 755 759 762 765 767 770 772 775 778 781 784 787 790 792 793 796 798 801 802 804 805 807 808 809 811 812 813 815 816 818 819 821
716 720 723 726 731 736 740 742 744 747 751 756 759 761 764 767 770 772 775 779 782 785 788 789 791 793 796 798 800 802 804 805 806 807 809 810 812 813 815 816 818 819
712 717 720 724 728 733 737 739 741 744 748 752 756 758 761 765 767 770 773 777 780 783 785 786 788 791 793 796 798 800 802 803 805 806 807 809 810 812 814 815 816 817
709 714 717 720 724 729 733 736 738 741 744 749 753 755 758 762 765 768 771 774 777 780 782 783 786 789 791 793 795 798 800 801 803 804 805 807 809 810 812 813 815 816
706 710 714 717 721 725 730 733 736 738 741 746 750 753 755 759 762 765 769 772 775 777 779 781 783 786 788 791 793 796 798 799 801 802 804 805 807 808 810 812 813 815
702 706 710 714 717 722 726 730 734 736 738 742 746 749 752 756 759 763 766 769 772 774 776 778 781 783 786 789 791 794 796 798 799 800 802 804 805 807 808 810 812 813
699 703 707 710 714 718 723 727 731 733 735 739 743 746 749 753 757 760 763 766 769 772 774 776 778 781 784 787 789 792 794 796 798 799 800 802 803 805 807 808 810 811
695 699 703 706 711 715 720 724 728 731 733 736 740 743 746 750 754 757 760 763 766 769 771 773 776 779 782 785 788 790 792 794 796 797 799 800 802 803 805 806 808 809
692 696 699 703 708 712 717 721 726 729 731 734 737 740 744 748 752 754 757 760 763 766 769 771 774 777 780 783 786 788 791 793 795 796 797 799 800 802 803 805 806 808
689 693 697 701 706 710 714 718 722 727 730 731 733 738 743 746 749 752 754 757 761 764 767 770 772 775 778 782 784 787 789 792 793 794 795 797 798 800 802 803 805 807
687 691 695 699 703 707 711 715 719 724 728 729 732 736 741 744 747 749 752 756 759 762 766 768 770 773 777 779 782 784 787 789 791 792 793 795 797 799 800 802 804 805
685 689 693 697 701 705 708 712 717 722 726 728 731 734 739 743 745 747 751 754 757 760 764 766 768 771 774 777 779 782 784 787 788 789 791 793 795 797 799 800 802 803
683 687 691 694 699 703 707 711 716 721 724 727 730 734 738 741 742 745 749 753 756 759 762 764 766 769 772 775 777 780 782 784 786 787 788 790 792 794 797 798 800 802
680 684 687 691 697 702 706 710 714 718 722 726 729 732 735 738 740 744 748 752 754 757 760 763 765 767 770 773 775 777 780 782 784 784 786 788 790 792 794 796 798 800